TimeEDT,TemperatureF,Dew PointF,Humidity,Sea Level PressureIn,VisibilityMPH,Wind Direction,Wind SpeedMPH,Gust SpeedMPH,PrecipitationIn,Events,Conditions,WindDirDegrees,DateUTC
12:49 AM,80.6,71.6,74,30.06,10.0,NNE,3.5,-,N/A,,Scattered Clouds,20,2013-05-13 04:49:00
12:53 AM,81.0,72.0,74,30.06,10.0,Calm,Calm,-,N/A,,Scattered Clouds,0,2013-05-13 04:53:00
1:53 AM,80.1,72.0,76,30.04,10.0,Calm,Calm,-,N/A,,Clear,0,2013-05-13 05:53:00
2:53 AM,79.0,72.0,79,30.03,10.0,Calm,Calm,-,N/A,,Clear,0,2013-05-13 06:53:00
3:53 AM,79.0,73.0,82,30.01,10.0,NNE,4.6,-,N/A,,Clear,30,2013-05-13 07:53:00
4:53 AM,79.0,73.0,82,30.02,10.0,NE,3.5,-,N/A,,Clear,40,2013-05-13 08:53:00
5:53 AM,78.1,73.0,84,30.02,10.0,Calm,Calm,-,N/A,,Clear,0,2013-05-13 09:53:00
6:53 AM,78.1,73.0,84,30.04,10.0,East,3.5,-,N/A,,Clear,90,2013-05-13 10:53:00
7:53 AM,81.0,73.9,79,30.06,10.0,Calm,Calm,-,N/A,,Clear,0,2013-05-13 11:53:00
8:53 AM,82.9,75.0,77,30.08,10.0,Calm,Calm,-,N/A,,Clear,0,2013-05-13 12:53:00
9:28 AM,82.4,73.4,74,30.09,10.0,Calm,Calm,-,N/A,,Mostly Cloudy,0,2013-05-13 13:28:00
9:53 AM,84.0,72.0,67,30.10,10.0,NE,3.5,-,N/A,,Mostly Cloudy,40,2013-05-13 13:53:00
10:32 AM,82.4,73.4,74,30.10,10.0,South,8.1,-,N/A,,Scattered Clouds,170,2013-05-13 14:32:00
10:53 AM,82.9,75.0,77,30.10,10.0,SSE,6.9,-,N/A,,Partly Cloudy,160,2013-05-13 14:53:00
11:53 AM,82.0,73.0,74,30.12,10.0,SSW,6.9,-,N/A,,Scattered Clouds,200,2013-05-13 15:53:00
12:07 PM,80.6,73.4,79,30.12,7.0,SW,4.6,-,0.00,Rain,Rain,230,2013-05-13 16:07:00
12:35 PM,80.6,73.4,79,30.12,5.0,WSW,5.8,-,0.04,Rain,Light Rain,250,2013-05-13 16:35:00
12:53 PM,81.0,73.9,79,30.12,10.0,NNW,6.9,-,0.04,Rain,Light Rain,340,2013-05-13 16:53:00
1:53 PM,84.0,75.9,76,30.11,10.0,North,6.9,-,N/A,,Scattered Clouds,350,2013-05-13 17:53:00
2:13 PM,82.4,75.2,79,30.10,10.0,NNW,12.7,-,N/A,,Mostly Cloudy,330,2013-05-13 18:13:00
2:21 PM,84.2,75.2,74,30.10,10.0,NNW,12.7,-,N/A,,Scattered Clouds,330,2013-05-13 18:21:00
2:53 PM,82.9,73.9,74,30.10,10.0,NNW,10.4,-,N/A,,Mostly Cloudy,330,2013-05-13 18:53:00
2:55 PM,84.2,73.4,70,30.10,10.0,NNW,10.4,-,N/A,,Scattered Clouds,340,2013-05-13 18:55:00
4:53 PM,82.9,73.0,72,30.07,10.0,North,11.5,-,N/A,,Partly Cloudy,350,2013-05-13 20:53:00
5:41 PM,82.4,73.4,74,30.07,10.0,NNW,9.2,-,N/A,,Mostly Cloudy,340,2013-05-13 21:41:00
5:53 PM,82.9,73.0,72,30.07,10.0,NNW,10.4,-,N/A,,Mostly Cloudy,340,2013-05-13 21:53:00
6:11 PM,82.4,71.6,70,30.07,10.0,NNW,12.7,-,N/A,,Scattered Clouds,330,2013-05-13 22:11:00
6:40 PM,82.4,71.6,70,30.08,10.0,NNW,12.7,-,N/A,,Mostly Cloudy,330,2013-05-13 22:40:00
6:53 PM,81.0,71.1,72,30.08,10.0,NNW,10.4,-,N/A,,Mostly Cloudy,330,2013-05-13 22:53:00
7:53 PM,80.6,71.6,74,30.08,10.0,North,10.4,-,N/A,,Mostly Cloudy,350,2013-05-13 23:53:00
8:13 PM,80.6,71.6,74,30.08,10.0,NNW,10.4,-,N/A,,Scattered Clouds,340,2013-05-14 00:13:00
8:53 PM,80.1,71.1,74,30.08,10.0,NNW,9.2,-,N/A,,Clear,340,2013-05-14 00:53:00
9:53 PM,79.0,70.0,74,30.10,10.0,NNW,11.5,-,N/A,,Clear,340,2013-05-14 01:53:00
10:53 PM,79.0,70.0,74,30.10,10.0,NNW,9.2,-,N/A,,Clear,340,2013-05-14 02:53:00
11:53 PM,78.1,70.0,76,30.09,10.0,North,9.2,17.3,N/A,,Clear,350,2013-05-14 03:53:00